[[{"header":{"parameterUnit":"m.s-1","parameterCategory":1,"la1":30.2991,"la2":30.254,"lo1":-89.0895,"lo2":-89.0444,"dy":0.0017,"dx":0.0017,"nx":28,"ny":28,"refTime":"2024-02-18T09:00:00:Z","depth":0,"parameterNumber":2,"parameterNumberName":"U-component_of_WINDS"},"data":[0,0,0,0,0,0,0,0,0,0,0,0,0,0,0,0,0,0,0,0,0,0,0,0,0,0,0,0,0,0,0,0,0,0,0,0,0,0,0,0,0,0,0,0,0,0,0,0,0,0,0,0,0,0,0,0,0,0,0.9973,0.9973,0,0.998,0.998,0.9981,0.9969,0.9968,0.9968,0.9967,0.9975,0.9975,0.9976,0,0,0,0,0,0,0,0,0,0,0,0,0,0.995,0.9951,0.9973,0.9973,0.9973,0.998,0.998,0.9981,0.9969,0.9968,0.9968,0.9967,0.9974,0.9975,0.9976,0,0,0,0,0,0,0,0,0,0,0,0,0,0.9959,0.9951,0.9973,0.9968,0.9968,0.998,0.998,0.9981,0.9969,0.9968,0.9968,0.9967,0.9974,0.9975,0.9976,0.9993,0,0,0.9978,0.9979,0,0,0,0,0,0,0,0,0.9959,0.996,0.9969,0.9969,0.9968,0.9973,0.9975,0.9985,0.9969,0.9968,0.9967,0.9967,0.9975,0.9975,0.9978,0.9994,0.9994,0.9979,0.9979,0.9979,0.998,0,0,0,0,0,0,0,0.9958,0.996,0.9976,0.9969,0.9969,0.9966,0.9967,0.9977,0.9975,0.9968,0.9968,0.9969,0.9974,0.9977,0.9978,0.9994,0.9979,0.9979,0.998,0.998,1.0026,1.0027,0,0,0,0,0,0,0.9958,0.9959,0.9976,0.9976,0.9962,0.9967,0.9968,0.9972,0.9975,0.9974,0.9969,0.9968,0.9976,0.9977,0.9978,1.0,0.9979,0.998,0.9981,1.0026,1.0026,1.0027,0,0,0,0,0,0,0.9958,0.996,0.9976,0.9968,0.9969,0.9968,0.9973,0.9973,0.9975,0.9975,0.9975,0.9972,0.9976,0.9977,0.999,1.0,0.9981,0.9981,1.0025,1.0026,1.0027,1.0043,0,0,0,0,0,0,0.9957,0.996,0.9966,0.9968,0.997,0.9987,0.9974,0.9973,0.9977,0.9976,0.9978,0.9978,0.9975,0.9989,0.9991,1.0001,0.9982,1.0024,1.0025,1.0027,1.0041,1.0044,1.0047,0,0,0,0,0,0.9956,0.997,0.9966,0.9968,0.9978,0.9987,0.9989,0.9985,0.9978,0.9984,0.9985,0.9978,0.9999,0.999,0.9993,1.0003,1.0023,1.0025,1.0026,1.004,1.0044,1.0047,0,0,0,0,0,0,0.9968,0.997,0.9966,0.998,0.9984,0.9985,0.9993,0.9989,0.9994,0.9993,0.9988,0.9989,1.0003,1.0004,0.9995,1.0021,1.001,1.0012,1.002,1.0023,1.0026,1.0025,0.9983,0,0,0,0,0,0.9973,0.998,0.9981,0.9994,0.9996,0.9995,0.9999,0.9996,0.9999,1.0001,1.0002,1.0006,1.0013,1.0018,1.0025,1.0042,1.0043,1.005,1.0053,1.0055,1.0057,1.0067,1.0071,1.0033,1.0033,1.0033,0,0,0.9981,0.9983,0.9988,0.9996,0.9999,1.0007,0.9996,1.0005,1.0012,1.0002,1.0015,1.0016,1.002,1.0035,1.0042,1.0037,1.0068,1.0057,1.0059,1.0059,1.0069,1.0073,1.0076,1.0034,1.0033,1.0033,0,0,1.0002,1.0004,1.0015,1.0019,1.0023,1.0022,1.0025,1.0028,1.0028,1.0041,1.0034,1.0042,1.0055,1.0059,1.0062,1.0087,1.0081,1.0089,1.0103,1.0113,1.0116,1.0119,1.0128,1.0132,1.0091,1.0091,1.0091,0,1.0013,1.0025,1.0022,1.0032,1.0036,1.0029,1.0041,1.0044,1.005,1.0054,1.0047,1.0064,1.0066,1.0083,1.009,1.0092,1.0096,1.0088,1.0116,1.0119,1.0121,1.013,1.0134,1.0092,1.0092,1.0092,1.0092,0,1.0039,1.0048,1.0056,1.0063,1.0068,1.0079,1.0078,1.0084,1.0081,1.0082,1.0095,1.0098,1.0106,1.011,1.0107,1.0127,1.0123,1.0117,1.0105,1.0126,1.0134,1.0138,1.0093,1.0093,1.0093,1.0092,0,0,1.0066,1.0072,1.0075,1.0079,1.0084,1.0091,1.0102,1.011,1.0116,1.0121,1.0131,1.0143,1.0137,1.0141,1.0139,1.0148,1.0168,1.014,1.014,1.0146,1.0192,1.0197,1.0201,1.0165,1.0166,1.0166,1.0192,0,1.0087,1.0107,1.0105,1.0123,1.0132,1.0126,1.0136,1.0141,1.0142,1.015,1.0151,1.016,1.0151,1.0154,1.0163,1.0164,1.0178,1.0162,1.0175,1.0175,1.0174,1.0205,1.021,1.0234,1.0195,1.0196,1.0196,0,1.0114,1.0121,1.0141,1.0146,1.015,1.0158,1.0167,1.0174,1.018,1.018,1.0186,1.0182,1.0194,1.0183,1.0201,1.019,1.0196,1.0197,1.0198,1.0199,1.0187,1.0208,1.0242,1.0245,1.0201,1.0201,1.02,0,1.0133,1.0147,1.0161,1.0164,1.017,1.0177,1.018,1.0185,1.0191,1.0198,1.0202,1.021,1.0215,1.0222,1.0222,1.0213,1.024,1.0228,1.0241,1.0241,1.0246,1.0246,1.0282,1.0249,1.0249,1.0249,1.0249,0,1.0157,1.017,1.017,1.0178,1.0193,1.0191,1.0205,1.0207,1.0212,1.0222,1.0217,1.0226,1.0225,1.0234,1.0234,1.0249,1.0251,1.0252,1.0252,1.0253,1.0253,1.0256,1.0254,1.025,1.025,1.025,1.0249,0,1.018,1.0181,1.0196,1.0201,1.0203,1.0213,1.0218,1.0226,1.0228,1.024,1.0243,1.0244,1.0255,1.0256,1.0268,1.0268,1.0287,1.0284,1.0285,1.0284,1.0297,1.0296,1.0337,1.0342,1.0306,1.0306,1.0306,0,1.0196,1.0205,1.0212,1.0218,1.0222,1.0231,1.0237,1.0237,1.0243,1.0251,1.0259,1.027,1.0278,1.0296,1.0299,1.0309,1.0307,1.0321,1.0308,1.031,1.0308,1.0308,1.0309,1.0323,1.0323,1.0324,1.0324,0,1.0223,1.0223,1.0232,1.0242,1.0249,1.0256,1.0263,1.0268,1.0269,1.0276,1.0288,1.0295,1.0308,1.0319,1.0329,1.0332,1.0329,1.0328,1.0332,1.0332,1.0333,1.0334,1.0292,1.0327,1.0327,1.0326,1.0326,1.0326,1.0243,1.0252,1.0259,1.0269,1.0274,1.0281,1.029,1.0293,1.0302,1.0313,1.0312,1.0325,1.0332,1.0345,1.035,1.036,1.0356,1.0361,1.0362,1.0363,1.0365,1.0331,1.0362,1.0362,1.0362,1.0362,1.0362,0,1.0271,1.0275,1.0285,1.0295,1.0304,1.03,1.0308,1.0315,1.0327,1.0333,1.0342,1.0356,1.0367,1.0372,1.0383,1.0391,1.0389,1.0393,1.0393,1.0394,1.0368,1.0364,1.0394,1.0394,1.0394,1.0394,1.0394,1.0394,1.0287,1.0302,1.0303,1.0321,1.0325,1.0338,1.0343,1.035,1.0356,1.0372,1.0381,1.0384,1.039,1.0402,1.0412,1.0413,1.0418,1.0423,1.0423,1.0399,1.0396,1.0393,1.0389,1.0424,1.0424,1.0449,1.0449,1.0449]},{"header":{"parameterUnit":"m.s-1","parameterCategory":1,"la1":30.2991,"la2":30.254,"lo1":-89.0895,"lo2":-89.0444,"dy":0.0017,"dx":0.0017,"nx":28,"ny":28,"refTime":"2024-02-18T09:00:00:Z","depth":0,"parameterNumber":3,"parameterNumberName":"V-component_of_WINDS"},"data":[0,0,0,0,0,0,0,0,0,0,0,0,0,0,0,0,0,0,0,0,0,0,0,0,0,0,0,0,0,0,0,0,0,0,0,0,0,0,0,0,0,0,0,0,0,0,0,0,0,0,0,0,0,0,0,0,0,0,-5.2785,-5.2787,0,-5.2898,-5.29,-5.2901,-5.2895,-5.2894,-5.2892,-5.2891,-5.3002,-5.3006,-5.301,0,0,0,0,0,0,0,0,0,0,0,0,0,-5.2562,-5.2566,-5.2785,-5.2787,-5.2788,-5.2898,-5.29,-5.2901,-5.2896,-5.2894,-5.2892,-5.289,-5.3,-5.3005,-5.3011,0,0,0,0,0,0,0,0,0,0,0,0,0,-5.2665,-5.2568,-5.2785,-5.2799,-5.2801,-5.2898,-5.29,-5.2902,-5.2896,-5.2894,-5.2891,-5.2889,-5.2998,-5.3005,-5.3012,-5.3101,0,0,-5.3032,-5.3035,0,0,0,0,0,0,0,0,-5.266,-5.2674,-5.2795,-5.2798,-5.2801,-5.288,-5.2862,-5.2968,-5.2897,-5.286,-5.2891,-5.2888,-5.2963,-5.2972,-5.2999,-5.3106,-5.3111,-5.3032,-5.3037,-5.3039,-5.3041,0,0,0,0,0,0,0,-5.2652,-5.2669,-5.283,-5.2797,-5.28,-5.2798,-5.281,-5.2882,-5.2923,-5.2863,-5.2863,-5.2876,-5.2964,-5.2992,-5.3001,-5.3112,-5.3032,-5.3038,-5.3042,-5.3045,-5.3301,-5.3303,0,0,0,0,0,0,-5.2643,-5.2663,-5.2826,-5.2833,-5.2723,-5.2804,-5.2818,-5.2857,-5.2923,-5.293,-5.2878,-5.2876,-5.2982,-5.2993,-5.3005,-5.3116,-5.3039,-5.3046,-5.3049,-5.3298,-5.3301,-5.3304,0,0,0,0,0,0,-5.2638,-5.2657,-5.2822,-5.2748,-5.2769,-5.2811,-5.2855,-5.2861,-5.2889,-5.2934,-5.2941,-5.29,-5.2981,-5.2996,-5.3078,-5.3119,-5.3049,-5.3055,-5.3295,-5.3299,-5.3303,-5.3336,0,0,0,0,0,0,-5.2632,-5.2656,-5.269,-5.2749,-5.2773,-5.2893,-5.2858,-5.2865,-5.2901,-5.2899,-5.2956,-5.2964,-5.298,-5.3068,-5.3084,-5.3127,-5.306,-5.3291,-5.3296,-5.3301,-5.3331,-5.3341,-5.3349,0,0,0,0,0,-5.2624,-5.2694,-5.2692,-5.2712,-5.2817,-5.2896,-5.2909,-5.2928,-5.2904,-5.294,-5.2969,-5.2962,-5.3112,-5.3076,-5.3095,-5.314,-5.3288,-5.3295,-5.3301,-5.3328,-5.3339,-5.3349,0,0,0,0,0,0,-5.2637,-5.2702,-5.2701,-5.2792,-5.2839,-5.2895,-5.2939,-5.2939,-5.2992,-5.2988,-5.3007,-5.302,-5.3103,-5.313,-5.3089,-5.3231,-5.3197,-5.3207,-5.3211,-5.3222,-5.3231,-5.3223,-5.3065,0,0,0,0,0,-5.2651,-5.271,-5.2763,-5.2838,-5.2862,-5.2897,-5.2932,-5.2943,-5.2991,-5.301,-5.3045,-5.3092,-5.315,-5.3187,-5.3243,-5.3335,-5.3348,-5.3376,-5.3384,-5.3391,-5.34,-5.3453,-5.3466,-5.3325,-5.3325,-5.3325,0,0,-5.2679,-5.2722,-5.2758,-5.2842,-5.288,-5.294,-5.2913,-5.2978,-5.3023,-5.3019,-5.31,-5.3128,-5.3181,-5.3269,-5.331,-5.3294,-5.3442,-5.3399,-5.3405,-5.341,-5.3461,-5.3474,-5.3486,-5.3329,-5.3328,-5.3328,0,0,-5.2762,-5.28,-5.2869,-5.2908,-5.2966,-5.2989,-5.3005,-5.3062,-5.3081,-5.3163,-5.3162,-5.3216,-5.3314,-5.3353,-5.3386,-5.3487,-5.3483,-5.3504,-5.355,-5.3601,-5.3612,-5.3622,-5.366,-5.3673,-5.3513,-5.3513,-5.3513,0,-5.279,-5.2883,-5.2903,-5.297,-5.3007,-5.3009,-5.3079,-5.3115,-5.3187,-5.3213,-5.3194,-5.3321,-5.3356,-5.3455,-5.348,-5.3506,-5.3525,-5.3498,-5.3609,-5.362,-5.3629,-5.3665,-5.3679,-5.3515,-5.3515,-5.3515,-5.3514,0,-5.2915,-5.2979,-5.3027,-5.31,-5.3143,-5.321,-5.3241,-5.3282,-5.3289,-5.3314,-5.3398,-5.3442,-5.3507,-5.3531,-5.3538,-5.3631,-5.362,-5.3605,-5.3572,-5.3645,-5.3679,-5.3693,-5.3518,-5.3518,-5.3517,-5.3516,0,0,-5.3008,-5.3094,-5.3111,-5.3145,-5.3211,-5.3261,-5.3328,-5.3395,-5.343,-5.348,-5.3538,-5.3623,-5.3611,-5.3648,-5.3659,-5.3704,-5.3784,-5.3684,-5.3686,-5.3703,-5.3892,-5.3903,-5.3919,-5.3782,-5.3784,-5.3786,-5.3888,0,-5.3099,-5.3222,-5.3243,-5.335,-5.341,-5.3414,-5.3474,-5.352,-5.3546,-5.36,-5.3627,-5.3688,-5.3667,-5.369,-5.3734,-5.3765,-5.3822,-5.3758,-5.3836,-5.3838,-5.3823,-5.3936,-5.3948,-5.4042,-5.3901,-5.3903,-5.3905,0,-5.3221,-5.3278,-5.3392,-5.3452,-5.3478,-5.3531,-5.3595,-5.3647,-5.37,-5.3715,-5.3759,-5.3765,-5.3836,-5.3799,-5.3897,-5.3853,-5.3886,-5.3906,-5.391,-5.3918,-5.3876,-5.3949,-5.4072,-5.4086,-5.3926,-5.3924,-5.3923,0,-5.328,-5.3384,-5.3467,-5.3496,-5.3567,-5.3605,-5.3636,-5.3687,-5.3726,-5.3781,-5.3807,-5.3869,-5.3903,-5.3951,-5.3974,-5.3945,-5.4071,-5.4036,-5.4086,-5.4086,-5.4113,-5.4111,-5.4244,-5.4132,-5.4132,-5.4132,-5.4132,0,-5.338,-5.345,-5.3495,-5.3545,-5.3624,-5.3648,-5.3725,-5.3755,-5.3801,-5.3857,-5.3863,-5.3915,-5.3943,-5.3999,-5.4017,-5.4097,-5.4111,-5.4126,-5.413,-5.4126,-5.4125,-5.4149,-5.4143,-5.4136,-5.4135,-5.4134,-5.4134,0,-5.3459,-5.3492,-5.3582,-5.3643,-5.3661,-5.3716,-5.3768,-5.3817,-5.3844,-5.3915,-5.3933,-5.3974,-5.4041,-5.4069,-5.4151,-5.4163,-5.4255,-5.4253,-5.4238,-5.4239,-5.4289,-5.4284,-5.4442,-5.4465,-5.4338,-5.4339,-5.434,0,-5.3521,-5.3575,-5.3644,-5.3683,-5.3716,-5.3779,-5.382,-5.3846,-5.3889,-5.3955,-5.3996,-5.4064,-5.412,-5.4227,-5.4263,-5.4326,-5.4327,-5.4378,-5.4336,-5.4331,-5.433,-5.4327,-5.4333,-5.4386,-5.4387,-5.4388,-5.4389,0,-5.3628,-5.3643,-5.3703,-5.377,-5.3819,-5.3872,-5.3924,-5.3955,-5.3989,-5.4037,-5.4107,-5.415,-5.4236,-5.4303,-5.4369,-5.44,-5.4401,-5.4402,-5.4417,-5.4414,-5.4404,-5.4412,-5.426,-5.4398,-5.4397,-5.4397,-5.4396,-5.4396,-5.3702,-5.3751,-5.3808,-5.3875,-5.3918,-5.3967,-5.4017,-5.4051,-5.4111,-5.4184,-5.4195,-5.427,-5.4323,-5.4412,-5.4446,-5.4505,-5.4492,-5.4514,-5.4519,-5.4525,-5.4529,-5.4394,-5.4517,-5.4517,-5.4516,-5.4516,-5.4516,0,-5.3811,-5.3849,-5.391,-5.3984,-5.4038,-5.4036,-5.4093,-5.4138,-5.4205,-5.4255,-5.4311,-5.4392,-5.4459,-5.4501,-5.4568,-5.4607,-5.4609,-5.4624,-5.4622,-5.4629,-5.4536,-5.4517,-5.4621,-5.4621,-5.4621,-5.4621,-5.4621,-5.4621,-5.3874,-5.3959,-5.398,-5.4086,-5.4122,-5.4198,-5.4232,-5.4277,-5.4318,-5.4409,-5.4465,-5.4494,-5.4541,-5.4612,-5.4673,-5.4684,-5.4708,-5.4724,-5.4734,-5.4646,-5.4635,-5.4625,-5.4607,-5.4729,-5.4729,-5.4823,-5.4824,-5.4824]}]]